Dewpoint
22 24 26 27 27 28 29 30 32 33 35 37 40 41 41 42 43 43 43 42 42 41
19 21 22 25 27 27 28 30 31 32 32 33 35 38 39 39 38 39 40 40 41 40
17 19 21 22 23 26 27 28 29 30 31 32 33 33 35 35 36 36 37 36 37 37
15 17 19 20 21 24 25 27 27 28 28 29 30 31 32 32 32 32 32 33 34 34
14 15 16 17 19 21 23 25 27 27 27 27 27 28 29 29 30 30 30 31 31 31
12 13 14 15 17 19 20 22 25 27 27 26 27 27 28 28 28 28 29 29 30 30
10 12 13 14 15 17 18 19 22 26 27 27 27 27 28 28 29 29 29 29 30 30
9 11 12 13 14 16 16 18 20 23 29 28 27 27 27 27 28 28 28 29 31 32
6 8 10 11 12 13 15 16 18 19 23 27 29 28 28 27 26 27 26 27 29 29
4 4 5 4 7 9 10 13 14 16 20 24 27 27 25 24 24 24 25 26 25 25
2 3 3 4 3 3 3 3 8 12 15 17 22 23 24 23 22 22 22 23 26 26
2 2 2 2 4 5 4 -1 -3 2 9 11 15 16 18 17 17 18 19 22 23 28
2 1 1 2 2 4 1 -1 -5 -6 2 11 11 14 14 14 14 14 14 15 19 23
2 2 1 2 2 2 3 2 3 0 0 4 11 12 13 14 13 12 11 10 14 20
Wind_Speed
20 16 13 13 11 10 9 8 9 10 10 12 8 9 9 9 11 13 13 17 13 12
21 21 19 17 14 11 11 10 11 12 14 13 14 10 11 10 11 13 11 11 13 13
21 19 16 18 18 15 14 14 13 14 15 14 14 13 12 14 13 14 10 10 12 12
20 18 20 18 17 16 16 17 17 16 15 15 15 16 13 16 15 19 15 13 14 14
19 20 20 20 18 17 17 17 17 18 18 16 17 17 14 17 18 17 17 13 15 14
21 21 20 19 19 18 17 17 18 18 19 17 16 17 16 18 19 18 16 14 15 14
19 18 17 17 19 18 18 19 18 15 18 17 15 15 15 17 18 18 17 15 16 14
15 15 16 17 17 18 20 19 18 18 14 15 15 15 17 17 17 18 18 18 15 14
13 14 15 15 17 18 19 19 19 20 18 18 16 21 21 17 17 16 17 17 18 17
11 12 12 12 14 17 17 16 17 18 18 17 17 21 19 18 16 16 16 16 15 14
10 10 10 11 13 14 12 13 12 14 16 16 14 17 18 18 15 14 15 14 13 13
8 8 9 11 11 11 10 10 11 11 14 14 13 14 13 12 12 14 14 15 17 17
5 6 8 8 9 8 8 8 8 10 10 12 12 12 12 10 9 11 11 13 14 16
3 4 4 6 6 6 8 8 8 8 8 9 12 9 12 11 9 8 9 10 11 11
Wind_Direction
29 40 47 47 48 42 52 34 21 45 62 78 71 91 81 86 113 129 132 139 134 119
27 32 29 35 40 42 35 42 36 49 57 58 76 79 99 96 96 86 114 123 132 126
25 25 29 33 31 35 38 41 48 48 58 55 66 65 90 93 84 97 82 88 104 106
26 23 32 32 26 26 36 40 44 49 52 59 58 71 70 84 88 96 87 83 94 89
27 27 30 28 25 26 35 38 43 51 53 51 59 61 74 82 76 80 83 79 86 85
25 28 25 23 24 27 34 40 40 52 54 52 56 65 65 74 78 74 70 73 75 76
19 26 25 24 25 29 35 38 35 46 59 52 56 63 68 74 78 79 76 69 69 65
13 21 28 27 27 30 38 36 33 35 68 74 63 64 65 67 71 75 73 62 63 78
21 23 29 30 30 32 32 31 33 32 31 59 69 73 72 69 72 68 66 70 70 63
19 32 31 38 44 40 36 31 31 32 33 41 63 72 75 73 73 76 75 73 75 68
21 29 34 42 49 48 42 40 38 35 37 42 57 65 71 72 69 72 75 75 73 91
33 31 39 43 41 43 45 46 46 39 40 41 39 64 71 76 80 78 72 74 68 82
55 42 48 43 39 28 43 46 45 48 39 34 34 70 65 70 84 83 78 66 60 77
88 74 54 52 40 30 47 52 48 57 42 29 24 46 72 67 68 83 83 77 63 72